GW2944 Weather Reports


Display with metric or nautical units.
time (UTC)temp
F
wind
direction
speed
MPH
gust
MPH
rain 1hr
in
rain 24hr
in
rain mn
in
humidity
%
barometer
mb
20260504185229 82 144 2.0 2.0 0.00 0.00 0.00 43 1015.2
20260504184725 81 219 1.0 1.0 0.00 0.00 0.00 47 1015.2
20260504184221 81 61 4.0 5.0 0.00 0.00 0.00 42 1015.2
20260504183717 81 27 1.0 2.0 0.00 0.00 0.00 44 1015.2
20260504183214 80 137 1.0 1.0 0.00 0.00 0.00 47 1015.2
20260504182713 80 207 0.0 1.0 0.00 0.00 0.00 49 1015.5
20260504182209 81 74 1.0 1.0 0.00 0.00 0.00 43 1015.5
20260504181707 81 202 1.0 2.0 0.00 0.00 0.00 48 1015.5
20260504181204 81 177 1.0 1.0 0.00 0.00 0.00 47 1015.5
20260504180703 80 227 2.0 2.0 0.00 0.00 0.00 50 1015.8
20260504180202 80 17 4.0 7.0 0.00 0.00 0.00 43 1015.8
20260504175658 80 15 2.0 2.0 0.00 0.00 0.00 49 1015.5
20260504175155 80 206 1.0 1.0 0.00 0.00 0.00 51 1015.5
20260504174653 80 178 0.0 1.0 0.00 0.00 0.00 51 1015.8
20260504174150 79 201 1.0 1.0 0.00 0.00 0.00 48 1016.2
20260504173647 79 75 1.0 2.0 0.00 0.00 0.00 51 1015.8
20260504173144 80 99 1.0 1.0 0.00 0.00 0.00 46 1015.8
20260504172641 80 151 2.0 2.0 0.00 0.00 0.00 50 1016.2
20260504172137 79 99 1.0 2.0 0.00 0.00 0.00 53 1016.2
20260504171634 79 319 1.0 1.0 0.00 0.00 0.00 48 1016.2
20260504171131 79 222 1.0 1.0 0.00 0.00 0.00 45 1016.2
20260504170627 78 173 1.0 1.0 0.00 0.00 0.00 53 1016.2
20260504170125 79 124 1.0 1.0 0.00 0.00 0.00 50 1016.2
20260504151010 75 133 1.0 1.0 0.00 0.00 0.00 66 1017.2
20260504150508 74 135 0.0 1.0 0.00 0.00 0.00 62 1017.2
20260504140934 68 132 0.0 0.0 0.00 0.00 0.00 76 1017.5
20260504140430 68 136 0.0 0.0 0.00 0.00 0.00 82 1017.5
20260504130355 53 179 0.0 0.0 0.00 0.00 0.00 99 1017.2
20260504120318 48 179 0.0 0.0 0.00 0.00 0.00 99 1017.2
20260504110242 48 165 0.0 0.0 0.00 0.00 0.00 99 1016.9
20260504100200 48 159 0.0 0.0 0.00 0.00 0.00 99 1016.9
20260504090122 50 159 0.0 0.0 0.00 0.00 0.00 99 1016.9
20260504081552 50 159 0.0 0.0 0.00 0.00 0.00 99 1016.5
20260504081048 50 159 0.0 0.0 0.00 0.00 0.00 99 1016.9
20260504080545 50 159 0.0 0.0 0.00 0.00 0.00 99 1016.9
20260504050358 53 178 0.0 0.0 0.00 0.00 0.00 99 1018.2
20260504045855 53 178 0.0 0.0 0.00 0.00 0.00 99 1018.2
20260504045350 53 178 0.0 0.0 0.00 0.00 0.00 99 1017.9
20260504044847 53 178 0.0 0.0 0.00 0.00 0.00 99 1018.2
20260504044344 53 178 0.0 0.0 0.00 0.00 0.00 99 1018.2
20260504043842 53 178 0.0 0.0 0.00 0.00 0.00 99 1017.9
20260504043338 53 178 0.0 0.0 0.00 0.00 0.00 99 1017.9
20260504042836 54 178 0.0 0.0 0.00 0.00 0.00 99 1017.9
20260504042332 54 178 0.0 0.0 0.00 0.00 0.00 99 1018.2
20260504041829 54 178 0.0 0.0 0.00 0.00 0.00 99 1018.2
20260504041325 54 178 0.0 0.0 0.00 0.00 0.00 98 1017.9
20260504040821 55 178 0.0 0.0 0.00 0.00 0.00 98 1018.2
20260504040319 55 179 0.0 0.0 0.00 0.00 0.00 98 1018.2
20260504035814 55 179 0.0 0.0 0.00 0.00 0.00 98 1018.2
20260504035312 55 179 0.0 0.0 0.00 0.00 0.00 98 1018.5
20260504034809 55 175 0.0 0.0 0.00 0.00 0.00 98 1018.2
20260504034307 55 174 0.0 0.0 0.00 0.00 0.00 98 1018.2
20260504033804 55 174 0.0 0.0 0.00 0.00 0.00 98 1018.5
20260504033301 55 174 0.0 0.0 0.00 0.00 0.00 98 1018.2
20260504032758 55 174 0.0 0.0 0.00 0.00 0.00 97 1018.5
20260504032255 55 174 0.0 0.0 0.00 0.00 0.00 97 1018.5
20260504031752 55 174 0.0 0.0 0.00 0.00 0.00 97 1018.2
20260504031249 55 174 0.0 0.0 0.00 0.00 0.00 97 1018.5
20260504030745 55 174 0.0 0.0 0.00 0.00 0.00 97 1018.5
20260504030242 56 174 0.0 0.0 0.00 0.00 0.00 97 1018.5
20260504025738 56 174 0.0 0.0 0.00 0.00 0.00 96 1018.9
20260504025236 56 174 0.0 0.0 0.00 0.00 0.00 96 1018.9
20260504024733 56 174 0.0 0.0 0.00 0.00 0.00 96 1018.2
20260504024229 56 174 0.0 0.0 0.00 0.00 0.00 95 1018.2
20260504023726 56 174 0.0 0.0 0.00 0.00 0.00 95 1018.5
20260504023222 57 174 0.0 0.0 0.00 0.00 0.00 95 1018.2
20260504022718 57 174 0.0 0.0 0.00 0.00 0.00 95 1018.2
20260504022215 57 174 0.0 0.0 0.00 0.00 0.00 94 1018.2
20260504021712 57 175 0.0 0.0 0.00 0.00 0.00 93 1018.2
20260504021209 57 175 0.0 0.0 0.00 0.00 0.00 93 1018.2
20260504020706 58 175 0.0 0.0 0.00 0.00 0.00 92 1017.9
20260504020202 58 175 0.0 0.0 0.00 0.00 0.00 91 1017.9
20260504015658 58 175 0.0 0.0 0.00 0.00 0.00 90 1017.9
20260504015155 59 175 0.0 0.0 0.00 0.00 0.00 90 1017.9
20260504014650 59 175 0.0 0.0 0.00 0.00 0.00 89 1017.9
20260504014148 59 175 0.0 0.0 0.00 0.00 0.00 89 1017.9
20260504013646 59 175 0.0 0.0 0.00 0.00 0.00 88 1017.9
20260504013142 60 175 0.0 0.0 0.00 0.00 0.00 87 1017.9
20260504012639 60 174 0.0 0.0 0.00 0.00 0.00 88 1017.9
20260504012137 60 174 0.0 0.0 0.00 0.00 0.00 87 1017.9
20260504011634 61 174 0.0 0.0 0.00 0.00 0.00 86 1017.5
20260504011130 61 174 0.0 0.0 0.00 0.00 0.00 85 1017.9
20260504010626 61 174 0.0 0.0 0.00 0.00 0.00 83 1017.5
20260504010122 61 174 0.0 0.0 0.00 0.00 0.00 81 1017.5
20260504005619 62 174 0.0 0.0 0.00 0.00 0.00 82 1017.5
20260504005116 62 174 0.0 0.0 0.00 0.00 0.00 82 1017.5
20260504004614 63 174 0.0 0.0 0.00 0.00 0.00 83 1017.5
20260504004111 63 174 0.0 0.0 0.00 0.00 0.00 84 1017.5
20260504003607 64 174 0.0 0.0 0.00 0.00 0.00 81 1017.5
20260504003104 64 174 0.0 0.0 0.00 0.00 0.00 83 1017.2
20260504002601 64 174 0.0 0.0 0.00 0.00 0.00 79 1017.2
20260504002058 65 174 0.0 0.0 0.00 0.00 0.00 75 1017.2
20260504001556 65 174 0.0 0.0 0.00 0.00 0.00 77 1017.2
20260504001052 66 174 0.0 0.0 0.00 0.00 0.00 77 1017.5
20260504000549 66 174 0.0 0.0 0.00 0.00 0.00 78 1017.2
20260504000047 67 174 0.0 0.0 0.00 0.00 0.00 75 1017.2
20260503235545 68 174 0.0 0.0 0.00 0.00 0.00 76 1017.2
20260503235041 68 174 0.0 0.0 0.00 0.00 0.00 71 1017.2
20260503234539 69 174 0.0 0.0 0.00 0.00 0.00 69 1016.9
20260503234037 69 174 0.0 0.0 0.00 0.00 0.00 68 1017.2
20260503233533 69 175 0.0 0.0 0.00 0.00 0.00 65 1017.2
20260503233029 70 175 0.0 1.0 0.00 0.00 0.00 75 1017.2
20260503232526 70 175 0.0 0.0 0.00 0.00 0.00 72 1017.2
20260503232024 70 175 0.0 0.0 0.00 0.00 0.00 70 1017.9
20260503231522 70 175 0.0 0.0 0.00 0.00 0.00 71 1017.5
20260503231018 70 175 0.0 0.0 0.00 0.00 0.00 73 1017.5
20260503230515 70 175 0.0 0.0 0.00 0.00 0.00 67 1017.5
20260503230012 70 176 0.0 1.0 0.00 0.00 0.00 71 1017.2
20260503225509 70 170 0.0 0.0 0.00 0.00 0.00 61 1017.5
20260503225004 70 170 0.0 0.0 0.00 0.00 0.00 63 1017.5
20260503224501 70 171 0.0 0.0 0.00 0.00 0.00 59 1017.5
20260503223959 70 171 0.0 0.0 0.00 0.00 0.00 59 1017.5
20260503223457 71 118 0.0 1.0 0.00 0.00 0.00 62 1017.9
20260503222952 71 185 0.0 0.0 0.00 0.00 0.00 52 1017.5
20260503222451 72 185 0.0 0.0 0.00 0.00 0.00 51 1017.5
20260503221949 72 187 1.0 1.0 0.00 0.00 0.00 54 1017.9
20260503221447 72 38 1.0 1.0 0.00 0.00 0.00 55 1017.5
20260503220943 72 38 1.0 1.0 0.00 0.00 0.00 60 1017.9
20260503220439 73 37 0.0 1.0 0.00 0.00 0.00 57 1017.9
20260503215937 74 127 0.0 0.0 0.00 0.00 0.00 55 1017.9
20260503215433 75 110 1.0 1.0 0.00 0.00 0.00 49 1017.5
20260503214931 77 110 1.0 1.0 0.00 0.00 0.00 44 1017.9
20260503214429 78 203 0.0 0.0 0.00 0.00 0.00 41 1017.9
20260503213926 80 228 0.0 0.0 0.00 0.00 0.00 38 1017.9
20260503213424 80 228 0.0 1.0 0.00 0.00 0.00 47 1017.9
20260503212920 80 222 0.0 0.0 0.00 0.00 0.00 45 1017.9
20260503212418 80 246 1.0 1.0 0.00 0.00 0.00 38 1017.9
20260503211915 80 238 1.0 1.0 0.00 0.00 0.00 40 1018.2
20260503211412 80 238 1.0 1.0 0.00 0.00 0.00 40 1018.5
20260503210907 80 237 0.0 0.0 0.00 0.00 0.00 48 1018.2
20260503210404 80 136 1.0 1.0 0.00 0.00 0.00 37 1018.5
20260503205859 80 5 0.0 0.0 0.00 0.00 0.00 48 1018.5
20260503205356 80 276 0.0 1.0 0.00 0.00 0.00 48 1018.9
20260503204852 81 179 0.0 1.0 0.00 0.00 0.00 50 1018.9
20260503204349 80 358 0.0 0.0 0.00 0.00 0.00 45 1018.9
20260503203847 80 182 1.0 1.0 0.00 0.00 0.00 41 1018.9
20260503203344 80 214 0.0 0.0 0.00 0.00 0.00 43 1018.9
20260503202841 80 124 2.0 2.0 0.00 0.00 0.00 37 1019.2
20260503202339 80 148 2.0 3.0 0.00 0.00 0.00 38 1019.2
20260503201837 80 241 1.0 1.0 0.00 0.00 0.00 39 1019.2
20260503201333 80 200 1.0 1.0 0.00 0.00 0.00 44 1019.2
20260503200832 80 356 1.0 2.0 0.00 0.00 0.00 45 1019.2
20260503200327 79 336 1.0 1.0 0.00 0.00 0.00 41 1019.6
20260503195825 79 85 0.0 1.0 0.00 0.00 0.00 42 1019.6
20260503195321 79 281 1.0 2.0 0.00 0.00 0.00 41 1019.6
20260503194819 79 1 2.0 2.0 0.00 0.00 0.00 45 1019.9
20260503194314 79 174 0.0 0.0 0.00 0.00 0.00 40 1019.6
20260503193810 79 31 0.0 0.0 0.00 0.00 0.00 50 1019.9
20260503193307 78 94 4.0 6.0 0.00 0.00 0.00 38 1019.9
20260503192802 79 144 1.0 1.0 0.00 0.00 0.00 42 1019.9
20260503192258 79 144 2.0 2.0 0.00 0.00 0.00 49 1019.9
20260503191754 79 129 1.0 1.0 0.00 0.00 0.00 41 1019.6
20260503191252 79 130 1.0 2.0 0.00 0.00 0.00 42 1019.9
20260503190748 80 208 1.0 2.0 0.00 0.00 0.00 48 1020.2
20260503190245 79 118 1.0 1.0 0.00 0.00 0.00 42 1020.2
20260503185743 78 215 1.0 1.0 0.00 0.00 0.00 42 1020.2